Meteorología y climatología de Navarra
Datos de la estación - Meteo Navarra

Estación de Iñarbegi GN

Altitud 585 m.


Datos desde el 09/11/2019 hasta el 10/11/2019 en horario solar
Los datos son PROVISIONALES

Anterior Página 1 de 1 Siguiente Descargar: Formato para Excel 2000 o superior   Formato csv   Formato para OpenOffice Calc
Fecha Temperatura Humedad relativa Radiación global Insolación Precipitación Vel. viento 10 m Vel. viento 10 m Dir. viento 10 m
ºC % W/m² s l/m² m/s km/h º
09/11/2019 0:00 5.8 100 - - - - 0.1 - - - - - -
09/11/2019 0:10 5.8 100 - - - - 0.0 - - - - - -
09/11/2019 0:20 6.0 100 - - - - 0.0 - - - - - -
09/11/2019 0:30 6.1 100 - - - - 0.0 - - - - - -
09/11/2019 0:40 6.1 100 - - - - 0.3 - - - - - -
09/11/2019 0:50 6.0 100 - - - - 0.0 - - - - - -
09/11/2019 1:00 6.1 100 - - - - 0.2 - - - - - -
09/11/2019 1:10 6.1 100 - - - - 0.0 - - - - - -
09/11/2019 1:20 6.0 100 - - - - 0.0 - - - - - -
09/11/2019 1:30 5.9 100 - - - - 0.0 - - - - - -
09/11/2019 1:40 5.9 100 - - - - 0.0 - - - - - -
09/11/2019 1:50 5.8 100 - - - - 0.0 - - - - - -
09/11/2019 2:00 5.6 100 - - - - 0.4 - - - - - -
09/11/2019 2:10 5.5 100 - - - - 0.2 - - - - - -
09/11/2019 2:20 5.3 100 - - - - 0.9 - - - - - -
09/11/2019 2:30 5.2 100 - - - - 0.2 - - - - - -
09/11/2019 2:40 5.2 100 - - - - 0.1 - - - - - -
09/11/2019 2:50 5.3 100 - - - - 0.1 - - - - - -
09/11/2019 3:00 5.3 100 - - - - 0.1 - - - - - -
09/11/2019 3:10 5.3 100 - - - - 0.0 - - - - - -
09/11/2019 3:20 5.3 100 - - - - 0.2 - - - - - -
09/11/2019 3:30 5.3 100 - - - - 0.5 - - - - - -
09/11/2019 3:40 5.3 100 - - - - 0.0 - - - - - -
09/11/2019 3:50 5.3 100 - - - - 0.0 - - - - - -
09/11/2019 4:00 5.2 100 - - - - 0.0 - - - - - -
09/11/2019 4:10 5.2 100 - - - - 0.0 - - - - - -
09/11/2019 4:20 5.3 100 - - - - 0.0 - - - - - -
09/11/2019 4:30 5.3 100 - - - - 0.0 - - - - - -
09/11/2019 4:40 5.3 100 - - - - 0.0 - - - - - -
09/11/2019 4:50 5.4 100 - - - - 0.0 - - - - - -
09/11/2019 5:00 5.5 100 - - - - 0.3 - - - - - -
09/11/2019 5:10 5.5 100 - - - - 0.5 - - - - - -
09/11/2019 5:20 5.5 100 - - - - 0.0 - - - - - -
09/11/2019 5:30 5.5 100 - - - - 0.0 - - - - - -
09/11/2019 5:40 5.6 100 - - - - 0.0 - - - - - -
09/11/2019 5:50 5.6 100 - - - - 0.0 - - - - - -
09/11/2019 6:00 5.6 100 - - - - 0.0 - - - - - -
09/11/2019 6:10 5.7 100 - - - - 0.0 - - - - - -
09/11/2019 6:20 5.7 100 - - - - 0.0 - - - - - -
09/11/2019 6:30 5.7 100 - - - - 0.4 - - - - - -
09/11/2019 6:40 5.7 100 - - - - 0.8 - - - - - -
09/11/2019 6:50 5.8 100 - - - - 1.1 - - - - - -
09/11/2019 7:00 5.8 100 - - - - 0.2 - - - - - -
09/11/2019 7:10 5.8 100 - - - - 0.0 - - - - - -
09/11/2019 7:20 5.9 100 - - - - 0.0 - - - - - -
09/11/2019 7:30 5.9 100 - - - - 0.0 - - - - - -
09/11/2019 7:40 6.0 100 - - - - 0.0 - - - - - -
09/11/2019 7:50 6.1 100 - - - - 0.1 - - - - - -
09/11/2019 8:00 6.2 100 - - - - 0.1 - - - - - -
09/11/2019 8:10 6.1 100 - - - - 0.3 - - - - - -
09/11/2019 8:20 6.3 100 - - - - 0.3 - - - - - -
09/11/2019 8:30 6.3 100 - - - - 0.6 - - - - - -
09/11/2019 8:40 6.3 100 - - - - 0.1 - - - - - -
09/11/2019 8:50 6.4 100 - - - - 0.1 - - - - - -
09/11/2019 9:00 6.4 100 - - - - 0.0 - - - - - -
09/11/2019 9:10 6.5 100 - - - - 0.0 - - - - - -
09/11/2019 9:20 6.7 100 - - - - 0.1 - - - - - -
09/11/2019 9:30 6.7 100 - - - - 0.0 - - - - - -
09/11/2019 9:40 6.8 100 - - - - 0.0 - - - - - -
09/11/2019 9:50 6.7 100 - - - - 0.0 - - - - - -
09/11/2019 10:00 6.8 100 - - - - 0.0 - - - - - -
09/11/2019 10:10 6.9 100 - - - - 0.0 - - - - - -
09/11/2019 10:20 6.9 100 - - - - 0.0 - - - - - -
09/11/2019 10:30 7.0 100 - - - - 0.0 - - - - - -
09/11/2019 10:40 7.1 100 - - - - 0.0 - - - - - -
09/11/2019 10:50 7.2 100 - - - - 0.0 - - - - - -
09/11/2019 11:00 7.2 100 - - - - 0.0 - - - - - -
09/11/2019 11:10 7.2 100 - - - - 0.0 - - - - - -
09/11/2019 11:20 7.3 100 - - - - 0.0 - - - - - -
09/11/2019 11:30 7.6 99 - - - - 0.0 - - - - - -
09/11/2019 11:40 7.7 96 - - - - 0.0 - - - - - -
09/11/2019 11:50 7.9 93 - - - - 0.0 - - - - - -
09/11/2019 12:00 8.1 90 - - - - 0.0 - - - - - -
09/11/2019 12:10 8.6 85 - - - - 0.0 - - - - - -
09/11/2019 12:20 9.0 85 - - - - 0.0 - - - - - -
09/11/2019 12:30 8.8 81 - - - - 0.0 - - - - - -
09/11/2019 12:40 8.8 82 - - - - 0.0 - - - - - -
09/11/2019 12:50 8.7 80 - - - - 0.0 - - - - - -
09/11/2019 13:00 8.6 80 - - - - 0.0 - - - - - -
09/11/2019 13:10 8.9 78 - - - - 0.0 - - - - - -
09/11/2019 13:20 8.8 78 - - - - 0.0 - - - - - -
09/11/2019 13:30 9.0 77 - - - - 0.0 - - - - - -
09/11/2019 13:40 8.8 77 - - - - 0.0 - - - - - -
09/11/2019 13:50 8.4 81 - - - - 0.0 - - - - - -
09/11/2019 14:00 8.3 80 - - - - 0.0 - - - - - -
09/11/2019 14:10 7.9 83 - - - - 1.2 - - - - - -
09/11/2019 14:20 7.5 88 - - - - 0.8 - - - - - -
09/11/2019 14:30 7.3 93 - - - - 0.5 - - - - - -
09/11/2019 14:40 7.2 94 - - - - 0.3 - - - - - -
09/11/2019 14:50 7.1 94 - - - - 0.2 - - - - - -
09/11/2019 15:00 7.1 95 - - - - 0.6 - - - - - -
09/11/2019 15:10 7.2 96 - - - - 0.2 - - - - - -
09/11/2019 15:20 7.2 97 - - - - 0.0 - - - - - -
09/11/2019 15:30 7.4 97 - - - - 0.1 - - - - - -
09/11/2019 15:40 7.6 97 - - - - 0.2 - - - - - -
09/11/2019 15:50 7.7 100 - - - - 0.1 - - - - - -
09/11/2019 16:00 7.7 100 - - - - 0.0 - - - - - -
09/11/2019 16:10 7.9 96 - - - - 0.1 - - - - - -
09/11/2019 16:20 8.0 95 - - - - 0.0 - - - - - -
09/11/2019 16:30 8.1 95 - - - - 0.0 - - - - - -
09/11/2019 16:40 8.2 94 - - - - 0.0 - - - - - -
09/11/2019 16:50 8.3 95 - - - - 0.0 - - - - - -
09/11/2019 17:00 8.5 92 - - - - 0.1 - - - - - -
09/11/2019 17:10 8.5 91 - - - - 0.0 - - - - - -
09/11/2019 17:20 8.4 91 - - - - 0.0 - - - - - -
09/11/2019 17:30 8.3 93 - - - - 0.5 - - - - - -
09/11/2019 17:40 8.1 96 - - - - 0.3 - - - - - -
09/11/2019 17:50 8.1 95 - - - - 0.0 - - - - - -
09/11/2019 18:00 8.2 92 - - - - 0.0 - - - - - -
09/11/2019 18:10 8.2 90 - - - - 0.0 - - - - - -
09/11/2019 18:20 8.1 90 - - - - 0.3 - - - - - -
09/11/2019 18:30 7.8 93 - - - - 0.2 - - - - - -
09/11/2019 18:40 7.7 92 - - - - 0.1 - - - - - -
09/11/2019 18:50 7.5 94 - - - - 0.5 - - - - - -
09/11/2019 19:00 7.3 97 - - - - 1.1 - - - - - -
09/11/2019 19:10 7.1 100 - - - - 1.1 - - - - - -
09/11/2019 19:20 6.5 100 - - - - 0.8 - - - - - -
09/11/2019 19:30 6.2 100 - - - - 1.2 - - - - - -
09/11/2019 19:40 5.8 100 - - - - 0.6 - - - - - -
09/11/2019 19:50 5.4 100 - - - - 0.5 - - - - - -
09/11/2019 20:00 5.2 100 - - - - 0.5 - - - - - -
09/11/2019 20:10 5.1 100 - - - - 0.9 - - - - - -
09/11/2019 20:20 5.1 100 - - - - 0.3 - - - - - -
09/11/2019 20:30 5.1 100 - - - - 0.3 - - - - - -
09/11/2019 20:40 5.3 100 - - - - 0.3 - - - - - -
09/11/2019 20:50 5.3 100 - - - - 0.1 - - - - - -
09/11/2019 21:00 5.4 100 - - - - 0.4 - - - - - -
09/11/2019 21:10 5.4 100 - - - - 0.9 - - - - - -
09/11/2019 21:20 5.2 100 - - - - 0.2 - - - - - -
09/11/2019 21:30 5.1 100 - - - - 0.6 - - - - - -
09/11/2019 21:40 5.0 100 - - - - 0.5 - - - - - -
09/11/2019 21:50 4.9 100 - - - - 0.3 - - - - - -
09/11/2019 22:00 4.9 100 - - - - 0.2 - - - - - -
09/11/2019 22:10 4.8 100 - - - - 0.0 - - - - - -
09/11/2019 22:20 4.7 100 - - - - 0.0 - - - - - -
09/11/2019 22:30 4.7 100 - - - - 0.0 - - - - - -
09/11/2019 22:40 4.7 100 - - - - 0.0 - - - - - -
09/11/2019 22:50 4.8 100 - - - - 0.0 - - - - - -
09/11/2019 23:00 4.9 100 - - - - 1.3 - - - - - -
09/11/2019 23:10 4.4 100 - - - - 0.9 - - - - - -
09/11/2019 23:20 4.2 100 - - - - 0.4 - - - - - -
09/11/2019 23:30 4.1 100 - - - - 0.2 - - - - - -
09/11/2019 23:40 4.0 100 - - - - 1.1 - - - - - -
09/11/2019 23:50 3.7 100 - - - - 0.4 - - - - - -
Anterior Página 1 de 1 Siguiente

NOTA: Tipo de datos según el color:
   - Valores diarios o 10 minutos correctos
   - Valores diarios calculados a partir de un número de datos 10 minutos menor que 144 y mayor que 120, o de un número de datos semihorarios menor que 48 y mayor que 40 (caso de las estaciones de Riegos de Navarra y del MARM)
   - Valores diez minutos estimados


Contacto        Enlaces        Aviso legal